Iliamna, AK

9:17 AM AKDT on April 24, 2018 (GMT -0800)
Iliamna

Weather History for PAIL - January, 2014

Change the Weather History Date:

Friday, January 31, 2014

  Actual Average Record
Temperature  
Mean Temperature 32 °F -  
Max Temperature 37 °F 23 °F 44 °F (1945)
Min Temperature 28 °F 12 °F -38 °F (1947)
Degree Days  
Heating Degree Days 32    
Moisture  
Dew Point 30 °F    
Average Humidity 90    
Maximum Humidity 100    
Minimum Humidity 71    
Precipitation  
Precipitation 0.00 in - - ()
Sea Level Pressure  
Sea Level Pressure 30.26 in    
Wind  
Wind Speed 3 mph (NNW)    
Max Wind Speed 7 mph    
Max Gust Speed -    
Visibility 10 miles    
Events      
Averages and records for this station are not official NWS values.
T = Trace of Precipitation, MM = Missing Value Source: NWS Daily Summary

Daily Weather History Graph

Daily Weather History Graph

Search for Another Location

Airport or City:

Astronomy

Jan. 31, 2014 Rise Set
Actual Time 9:33 AM AKST 5:33 PM AKST
Civil Twilight 8:46 AM AKST 6:20 PM AKST
Nautical Twilight 7:56 AM AKST 7:11 PM AKST
Astronomical Twilight 7:08 AM AKST 7:59 PM AKST
Moon 9:20 AM AKST (1/31) 7:47 PM AKST (1/31)
Length of Visible Light 9h 33m
Length of Day
7h 59m
New Moon, 1% of the Moon is Illuminated
Jan 31
New Moon
Feb 6
First Quarter
Feb 14
Full
Feb 22
Last Quarter
Feb 28
New

Hourly Weather History & Observations

Time (AKST) Temp. Windchill Dew Point Humidity Pressure Visibility Wind Dir Wind Speed Gust Speed Precip Events Conditions
12:53 AM 32.0 °F - 30.0 °F 92% 30.20 in 10.0 mi Calm Calm - N/A   Clear
1:53 AM 33.1 °F 30.0 °F 30.9 °F 92% 30.21 in 10.0 mi SW 3.5 mph - N/A   Mostly Cloudy
3:53 AM 32.0 °F 27.5 °F 30.0 °F 92% 30.21 in 10.0 mi West 4.6 mph - N/A   Clear
4:53 AM 30.0 °F 24.1 °F 28.9 °F 96% 30.22 in 10.0 mi WNW 5.8 mph - N/A   Clear
5:53 AM 30.0 °F 25.2 °F 28.9 °F 96% 30.21 in 10.0 mi WNW 4.6 mph - N/A   Partly Cloudy
6:53 AM 30.0 °F 25.2 °F 28.9 °F 96% 30.23 in 10.0 mi NW 4.6 mph - N/A   Partly Cloudy
7:53 AM 28.0 °F 22.8 °F 28.0 °F 100% 30.24 in 10.0 mi NW 4.6 mph - N/A   Clear
8:53 AM 28.9 °F 21.9 °F 28.0 °F 96% 30.24 in 10.0 mi WNW 6.9 mph - N/A   Clear
9:53 AM 28.9 °F 22.8 °F 28.0 °F 96% 30.25 in 10.0 mi NNW 5.8 mph - N/A   Overcast
10:53 AM 33.1 °F 27.7 °F 30.9 °F 92% 30.26 in 10.0 mi North 5.8 mph - N/A   Mostly Cloudy
11:53 AM 35.1 °F 31.0 °F 32.0 °F 89% 30.26 in 10.0 mi NNE 4.6 mph - N/A   Overcast
12:53 PM 35.1 °F 31.0 °F 32.0 °F 89% 30.26 in 10.0 mi NE 4.6 mph - N/A   Overcast
1:53 PM 37.0 °F - 33.1 °F 86% 30.26 in 10.0 mi Calm Calm - N/A   Mostly Cloudy
2:53 PM 37.9 °F 35.5 °F 32.0 °F 79% 30.26 in 10.0 mi NE 3.5 mph - N/A   Overcast
3:53 PM 37.9 °F - 30.9 °F 76% 30.26 in 10.0 mi Calm Calm - N/A   Overcast
4:53 PM 36.0 °F 33.3 °F 30.0 °F 79% 30.27 in 10.0 mi North 3.5 mph - N/A   Overcast
5:53 PM 33.1 °F 30.0 °F 32.0 °F 96% 30.28 in 10.0 mi NE 3.5 mph - N/A   Mostly Cloudy
6:53 PM 34.0 °F 31.0 °F 32.0 °F 92% 30.29 in 10.0 mi NE 3.5 mph - N/A   Overcast
7:53 PM 34.0 °F - 30.9 °F 89% 30.30 in 10.0 mi Calm Calm - N/A   Overcast
8:53 PM 33.1 °F - 30.9 °F 92% 30.30 in 10.0 mi Calm Calm - N/A   Mostly Cloudy
9:53 PM 33.1 °F - 30.9 °F 92% 30.32 in 10.0 mi Calm Calm - N/A   Overcast
10:53 PM 33.1 °F 30.0 °F 30.9 °F 92% 30.32 in 10.0 mi North 3.5 mph - N/A   Overcast
11:53 PM 33.1 °F 30.0 °F 30.9 °F 92% 30.33 in 10.0 mi NNW 3.5 mph - N/A   Overcast